Greenville, ME

11:48 AM EST on November 21, 2019 (GMT -0500)
Greenville

Weather History for KGNR - September, 2019

Change the Weather History Date:

Friday, September 27, 2019

  Actual Average (WUND) Record (WUND)
Temperature  
Mean Temperature 55 °F -  
Max Temperature 63 °F - - (-1)
Min Temperature 48 °F - - (-1)
Degree Days  
Heating Degree Days 10    
Growing Degree Days 5 (Base 50)    
Moisture  
Dew Point 45 °F    
Average Humidity 72    
Maximum Humidity 90    
Minimum Humidity 48    
Precipitation  
Precipitation 0.00 in - - ()
Sea Level Pressure  
Sea Level Pressure 29.99 in    
Wind  
Wind Speed 8 mph ()    
Max Wind Speed 16 mph    
Max Gust Speed 26 mph    
Averages and records for this station are not official NWS values.
T = Trace of Precipitation, MM = Missing Value Source: Averaged Metar Reports

Daily Weather History Graph

Daily Weather History Graph

Search for Another Location

Airport or City:

Astronomy

Sep. 27, 2019 Rise Set
Actual Time 6:31 AM EDT 6:26 PM EDT
Civil Twilight 6:01 AM EDT 6:56 PM EDT
Nautical Twilight 5:27 AM EDT 7:30 PM EDT
Astronomical Twilight 4:51 AM EDT 8:05 PM EDT
Moon 4:39 AM EDT (9/27) 6:21 PM EDT (9/27)
Length of Visible Light 12h 54m
Length of Day
11h 55m
Waning Crescent, 2% of the Moon is Illuminated
Sep 27
Waning Crescent
Sep 28
New
Oct 5
First Quarter
Oct 13
Full
Oct 21
Last Quarter

Hourly Weather History & Observations

Time (EDT) Temp. Dew Point Humidity Pressure Visibility Wind Dir Wind Speed Gust Speed Precip Events Conditions
12:56 AM 52.0 °F 46.0 °F 80% 29.78 in - WNW 8.1 mph 17.3 mph N/A   Unknown
1:56 AM 52.0 °F 46.0 °F 80% 29.78 in - NW 15.0 mph 26.5 mph N/A   Unknown
2:56 AM 50.0 °F 45.0 °F 83% 29.81 in - NW 11.5 mph 23.0 mph N/A   Unknown
3:56 AM 48.9 °F 46.0 °F 90% 29.84 in - NW 12.7 mph 19.6 mph N/A   Unknown
4:56 AM 48.9 °F 46.0 °F 90% 29.88 in - NW 10.4 mph - N/A   Unknown
5:56 AM 48.9 °F 45.0 °F 86% 29.91 in - NW 9.2 mph - N/A   Unknown
6:56 AM 48.9 °F 45.0 °F 86% 29.94 in - NW 9.2 mph 19.6 mph N/A   Unknown
7:56 AM 50.0 °F 46.0 °F 86% 29.98 in - Variable 5.8 mph - N/A   Unknown
8:56 AM 52.0 °F 46.0 °F 80% 30.01 in - NW 8.1 mph - N/A   Unknown
9:56 AM 54.0 °F 46.0 °F 75% 30.04 in - NW 11.5 mph 18.4 mph N/A   Unknown
10:56 AM 57.0 °F 46.9 °F 69% 30.02 in - NW 16.1 mph 25.3 mph N/A   Unknown
11:56 AM 59.0 °F 46.0 °F 62% 30.04 in - NW 9.2 mph 21.9 mph N/A   Unknown
12:56 PM 60.1 °F 44.1 °F 55% 30.05 in - NW 10.4 mph 23.0 mph N/A   Unknown
1:56 PM 61.0 °F 45.0 °F 56% 30.04 in - NW 12.7 mph - N/A   Unknown
2:56 PM 62.1 °F 44.1 °F 52% 30.04 in - Variable 6.9 mph - N/A   Unknown
3:56 PM 62.1 °F 42.1 °F 48% 30.05 in - NW 4.6 mph - N/A   Unknown
4:56 PM 62.1 °F 44.1 °F 52% 30.05 in - Calm Calm - N/A   Unknown
5:56 PM 57.0 °F 45.0 °F 64% 30.06 in - Calm Calm - N/A   Unknown
6:56 PM 54.0 °F 45.0 °F 72% 30.07 in - Calm Calm - N/A   Unknown
7:56 PM 52.0 °F 43.0 °F 71% 30.09 in - Calm Calm - N/A   Unknown
8:56 PM 53.1 °F 44.1 °F 71% 30.08 in - Variable 3.5 mph - N/A   Unknown
9:56 PM 55.0 °F 45.0 °F 69% 30.08 in - South 4.6 mph - N/A   Unknown
10:56 PM 55.9 °F 45.0 °F 67% 30.07 in - Variable 4.6 mph - N/A   Unknown
11:56 PM 53.1 °F 46.0 °F 77% 30.08 in - Calm Calm - N/A   Unknown